Home   Weather   Wuhan   Past weeks

Flag for China Past Weather in Wuhan, Hubei, China — Yesterday and Last 2 Weeks

Now
43 °F

Fog.


Feels Like: 41 °F
Forecast: 40 / 58 °F
Wind: 3 mph from North

Location: Wuhan Airport

Current Time: Jan 25, 2017 at 9:34:06 am

Latest Report: Jan 25, 2017 at 8:00 am


Visibility: 2 mi

Pressure: 30.48 "Hg

Humidity: 81%

Dew Point: 37 °F

Location of WuhanLocation

Past Weather in Wuhan — Graph

°F

Wuhan Temperature Yesterday

Maximum temperature yesterday: 55 °F (at 1:00 pm)
Minimum temperature yesterday: 39 °F (at 8:00 am)
Average temperature yesterday: 47 °F

High & Low Weather Summary for the Past Weeks

 TemperatureHumidityPressure
High55 °F (Jan 23, 2:00 pm)100% (Jan 12, 12:00 am)30.63 "Hg (Jan 12, 12:00 am)
Low28 °F (Jan 21, 4:00 am)25% (Jan 20, 3:00 pm)30.18 "Hg (Jan 12, 3:00 pm)
Average43 °F67%30.37 "Hg
* Reported Jan 10 8:00 am — Jan 25 8:00 am, Wuhan, Weather by CustomWeather, © 2017

Note: Actual official high and low records may vary slightly from our data, if they occured in-between our weather recording intervals... More about our weather records

Advertising

Wuhan Weather History for the Previous 24 Hours

Scroll right to see more
 ConditionsComfort  
Time TempWeatherWind HumidityBarometerVisibility
8:00 am
Wed, Jan 25
43 °FFog.3 mph81%30.48 "Hg2 mi
7:00 am43 °FFog.1 mph81%30.45 "Hg3 mi
6:00 am43 °FFog.1 mph81%30.45 "Hg3 mi
5:00 am43 °FFog.1 mph81%30.45 "Hg3 mi
4:00 am45 °FFog.1 mph76%30.45 "Hg3 mi
3:00 am45 °FHaze.1 mph71%30.45 "Hg3 mi
2:00 am45 °FHaze.3 mph66%30.45 "Hg3 mi
1:00 am45 °FHaze.6 mph66%30.48 "Hg3 mi
12:00 am45 °FHaze.3 mph66%30.48 "Hg3 mi
11:00 pm
Tue, Jan 24
45 °FHaze.3 mph66%30.48 "Hg3 mi
10:00 pm46 °FHaze.6 mph62%30.48 "Hg3 mi
9:00 pm46 °FHaze.8 mph62%30.45 "Hg2 mi
8:00 pm46 °FHaze.10 mph66%30.45 "Hg2 mi
7:00 pm48 °FHaze.10 mph62%30.42 "Hg2 mi
6:00 pm52 °FHaze.1 mph50%30.42 "Hg2 mi
5:00 pm55 °FClear.1 mph44%30.39 "Hg5 mi
4:00 pm55 °FScattered clouds.6 mph33%30.39 "HgN/A
3:00 pm55 °FClear.6 mph28%30.36 "Hg4 mi
2:00 pm55 °FClear.3 mph36%30.39 "Hg4 mi
1:00 pm55 °FClear.8 mph36%30.39 "Hg4 mi
12:00 pm52 °FHaze.6 mph47%30.42 "Hg3 mi
11:00 am50 °FHaze.6 mph50%30.45 "Hg3 mi
10:00 am46 °FHaze.10 mph53%30.45 "Hg3 mi
9:00 am43 °FHaze.10 mph61%30.42 "Hg3 mi
Weather by CustomWeather, © 2017

See weather overviewHow to use our weather pages